Wetbulb
44.07 43.21 42.38 41.84 41.96 42.25 42.38 42.10 41.41 41.61 42.20 42.30 42.54 42.52 42.23 41.50 40.77 40.70 41.10 41.79 41.84 41.89 41.81 42.00 42.23 42.24 42.22 42.23 42.32 42.09 41.94 41.83 41.84 41.50 41.11 41.25 41.81 41.88 41.80 41.64 41.36 41.13 40.74 40.46 40.07 39.68 39.21 38.50 37.95 37.81 37.59 36.72 36.04 35.57 35.27 35.19 34.51 34.41 34.52 35.01 35.26 35.11 34.59 34.33 34.84 34.92 34.84 35.18 36.12
42.15 41.23 40.38 39.90 41.03 42.26 43.03 42.62 41.99 42.18 42.78 43.41 43.46 43.01 42.39 41.69 41.18 41.02 41.10 41.60 41.89 42.03 42.14 42.40 42.01 41.94 41.94 41.91 41.88 41.88 41.83 41.80 41.83 41.69 41.58 41.57 41.61 41.41 41.21 41.17 40.86 40.63 40.19 39.88 39.49 39.25 38.89 37.98 37.48 37.46 37.35 36.95 36.19 35.61 35.19 34.89 34.43 34.24 34.21 34.40 35.04 35.28 35.32 35.42 35.49 35.47 35.47 35.90 36.30
41.35 41.04 40.90 41.35 42.40 43.10 43.30 42.91 42.63 42.60 42.72 43.18 43.24 42.94 42.55 42.24 42.00 41.96 41.83 41.74 41.78 41.98 42.05 42.09 41.49 41.43 41.63 41.70 41.82 41.74 41.73 41.66 41.65 41.45 41.41 41.30 41.17 40.89 40.77 40.61 40.27 39.84 39.41 39.17 38.78 38.65 38.49 37.79 37.54 37.44 37.42 37.47 36.31 35.99 35.96 35.68 35.19 35.07 35.00 34.72 35.68 36.25 36.49 36.77 36.32 36.18 36.42 36.89 36.55
41.41 41.45 41.55 41.88 42.18 42.47 42.77 42.71 42.50 42.63 42.79 42.94 42.67 42.47 42.43 42.38 42.13 41.97 41.69 41.32 41.55 41.63 41.63 41.36 40.74 40.75 41.11 41.35 41.55 41.62 41.46 40.99 40.99 40.90 40.78 40.62 40.42 40.18 40.02 39.74 39.52 39.29 39.10 38.94 38.57 38.34 38.06 37.66 37.86 37.88 37.46 36.66 36.17 36.19 36.49 36.86 36.00 36.02 36.15 35.99 36.64 36.75 36.75 37.20 37.03 37.15 37.15 37.11 36.65
41.66 42.01 42.31 42.66 42.70 42.93 43.08 42.75 42.63 42.70 42.70 42.75 42.60 42.35 42.15 41.99 41.88 41.68 41.44 41.20 41.40 41.59 41.60 41.26 40.96 40.78 40.79 41.23 41.47 41.46 41.30 41.02 40.03 40.11 40.39 40.07 39.91 39.76 39.52 39.33 39.14 38.98 38.94 38.60 38.40 38.20 37.97 37.59 38.06 37.97 37.58 36.90 37.05 37.10 36.99 36.78 36.32 36.35 36.67 37.23 37.35 37.35 37.30 37.29 37.37 37.42 37.34 37.29 36.89
41.20 41.89 42.56 42.89 42.99 43.12 43.11 43.06 42.81 42.59 42.47 42.23 41.97 41.68 41.55 41.73 41.70 41.66 41.51 41.24 41.40 41.48 41.37 40.74 40.43 40.35 40.55 41.31 41.23 41.11 40.99 40.91 40.39 40.15 40.03 39.76 39.60 39.41 39.06 38.90 38.78 38.73 38.64 38.47 38.16 37.97 37.69 37.43 37.80 37.77 37.65 37.53 37.20 37.13 36.97 36.45 36.48 36.44 36.53 36.86 37.14 37.23 37.26 36.93 37.22 37.34 37.13 36.82 36.44
40.75 41.27 41.75 42.12 42.00 42.25 42.44 42.28 42.24 42.16 41.95 41.66 41.26 41.05 41.12 41.28 41.17 41.05 41.05 41.13 41.40 41.29 40.90 40.19 40.35 40.47 40.55 40.71 40.43 40.31 40.19 40.15 39.99 39.92 39.64 39.56 39.33 39.02 38.71 38.67 38.63 38.52 38.44 38.39 38.07 37.95 37.71 37.48 37.76 37.73 37.53 37.36 37.61 37.36 36.87 36.71 36.53 36.44 36.29 36.28 36.87 37.13 36.98 36.57 36.78 36.89 36.59 35.74 35.48
40.49 40.79 40.96 41.28 41.36 41.51 41.63 41.45 41.41 41.41 41.41 41.29 40.99 40.87 40.95 40.94 40.79 40.67 40.67 40.59 40.63 40.35 40.19 40.15 40.51 40.43 40.15 39.80 39.56 39.52 39.52 39.64 39.72 39.68 39.52 39.45 39.14 38.98 38.83 38.71 38.60 38.40 38.28 38.20 38.08 37.92 37.84 37.84 37.80 37.64 37.41 37.37 37.57 37.38 36.90 36.22 35.97 35.82 35.72 35.76 36.44 36.69 36.77 36.73 36.34 36.19 36.03 35.25 35.05
39.94 40.01 40.35 40.60 40.53 40.58 40.83 41.00 40.90 40.94 40.90 40.75 40.59 40.47 40.35 40.31 40.07 39.83 39.71 39.64 39.32 39.33 39.53 39.72 39.64 39.68 39.64 39.48 39.36 39.37 39.49 39.63 39.52 39.40 39.29 39.10 38.87 38.71 38.60 38.56 38.25 38.06 37.79 37.74 37.51 37.26 37.03 37.35 37.23 37.03 36.83 36.87 36.67 36.33 35.81 35.07 34.83 34.61 34.72 35.28 35.58 35.71 35.80 35.94 35.12 35.16 35.33 35.02 34.83
39.06 39.29 39.48 39.63 39.41 39.75 40.17 40.60 40.62 40.54 40.51 40.19 40.07 39.80 39.23 38.62 39.06 39.10 39.14 38.99 38.61 38.81 39.12 39.08 39.24 39.36 39.44 39.44 39.33 39.41 39.51 39.45 39.24 38.91 38.54 38.36 37.99 37.81 37.63 37.52 37.01 36.61 36.36 36.09 35.81 35.37 35.04 35.24 34.88 34.56 34.24 34.01 33.78 33.43 33.19 33.18 32.92 32.79 33.18 34.30 33.84 33.50 33.46 33.98 34.05 33.91 33.84 34.05 33.98
38.37 38.44 38.60 38.67 38.71 39.06 39.36 39.60 39.83 39.98 39.99 39.76 39.45 39.21 38.84 38.38 38.66 38.79 38.65 38.58 38.65 38.68 38.80 38.97 39.28 39.44 39.60 39.52 39.56 39.47 39.21 38.98 38.60 38.03 37.50 36.97 36.50 36.23 36.02 35.80 35.42 35.24 35.24 35.21 34.89 34.57 34.36 34.20 33.65 33.02 32.60 32.51 32.51 32.53 32.44 32.08 32.00 31.81 31.83 32.45 32.15 31.99 31.99 32.27 32.59 32.73 32.79 32.86 32.85
37.80 37.87 37.84 37.65 37.76 38.03 38.18 38.18 38.33 38.29 38.33 38.40 38.33 38.32 38.46 38.49 38.41 37.99 37.80 38.30 38.34 38.47 38.71 39.33 39.56 39.68 39.67 39.66 39.40 38.96 38.58 38.15 37.69 37.10 36.50 35.96 35.60 35.40 35.23 35.31 35.31 35.38 35.49 35.55 35.18 35.03 34.91 34.30 33.76 33.10 32.56 32.16 32.89 33.06 32.90 32.18 32.03 31.90 31.67 31.67 31.80 31.89 31.96 32.04 32.22 32.66 32.85 32.53 32.54
37.28 37.31 37.24 36.96 37.03 37.03 36.91 36.79 36.60 36.40 36.29 36.31 36.28 36.66 37.15 37.48 37.51 37.44 37.51 38.00 37.97 38.29 38.67 39.20 39.27 39.30 39.13 39.03 38.73 38.43 38.10 37.78 37.21 36.83 36.42 35.92 36.00 35.94 35.84 35.99 35.99 35.96 35.96 35.78 34.99 34.85 34.79 34.13 33.33 32.88 32.69 32.33 32.81 32.83 32.54 32.01 31.86 31.72 31.57 31.30 31.30 31.37 31.57 31.80 31.90 32.12 32.11 31.74 32.13
37.35 37.50 37.42 37.19 36.92 36.72 36.37 35.87 35.71 35.45 35.27 35.24 35.63 36.21 36.89 37.19 37.14 37.25 37.52 37.68 37.84 38.03 38.32 38.58 38.58 38.56 38.39 38.25 38.18 37.93 37.70 37.37 36.89 36.48 36.19 36.06 36.17 36.21 36.21 36.36 36.21 36.18 36.07 35.81 34.60 34.03 33.81 33.67 33.02 32.63 32.48 32.30 32.36 32.20 31.97 31.90 31.56 31.48 31.30 31.01 31.03 31.05 31.15 31.29 31.30 31.28 31.26 31.06 31.22
38.58 38.58 38.47 37.95 37.46 36.97 36.39 35.77 35.73 35.57 35.49 35.48 36.03 36.49 36.92 37.18 36.97 37.11 37.39 37.68 37.80 37.95 38.10 38.09 38.19 38.18 38.16 38.14 38.01 37.70 37.31 36.82 36.45 36.25 36.14 36.07 36.21 36.36 36.43 36.47 36.25 36.06 35.88 35.61 34.53 33.94 33.51 33.21 32.94 32.79 32.68 32.53 32.42 32.30 32.16 31.98 31.68 31.56 31.42 31.22 31.14 31.22 31.25 31.13 30.94 30.95 30.88 30.71 30.76
39.13 39.16 38.94 38.61 38.10 37.43 36.60 36.06 36.09 36.03 36.02 36.09 36.28 36.62 36.93 37.08 37.28 37.42 37.50 37.66 37.87 37.95 37.99 37.95 38.16 38.28 38.16 37.67 37.44 37.04 36.68 36.36 36.10 35.99 36.06 36.21 36.39 36.50 36.43 36.35 36.05 35.78 35.40 35.06 34.50 34.02 33.58 33.33 33.08 32.82 32.54 32.40 32.29 32.19 32.08 32.03 31.82 31.57 31.55 31.42 31.42 31.42 31.42 31.28 31.21 31.11 30.99 30.80 30.54
38.88 38.79 38.75 38.60 38.45 37.87 37.17 36.64 36.63 36.69 36.75 36.69 36.80 37.06 37.37 37.57 37.97 37.97 37.81 37.81 37.89 37.87 37.99 37.91 38.09 37.94 37.57 36.87 36.53 36.41 36.34 36.15 36.15 36.22 36.30 36.46 36.42 36.34 36.26 35.95 35.71 35.37 35.01 34.51 34.20 33.86 33.61 33.24 33.13 32.82 32.44 32.19 32.10 32.07 31.95 31.93 31.96 31.80 31.78 31.78 31.74 31.66 31.66 31.62 31.59 31.43 31.26 31.14 30.94
38.47 38.43 38.28 38.24 38.09 37.90 37.58 37.20 37.23 37.41 37.51 37.65 37.76 37.94 38.14 38.42 38.62 38.62 38.47 38.28 38.15 37.97 37.75 37.71 37.57 37.20 36.71 36.23 35.97 36.00 36.09 36.11 36.23 36.28 36.44 36.55 36.43 36.23 35.88 35.56 35.21 34.81 34.42 34.04 33.81 33.50 33.31 33.33 33.13 32.97 32.58 32.38 32.35 32.35 32.27 32.19 32.16 32.11 32.01 31.93 31.89 31.84 31.84 31.82 31.74 31.71 31.71 31.56 31.46
38.25 38.06 37.72 37.43 37.54 37.61 37.73 37.64 37.79 38.05 38.27 38.42 38.49 38.67 38.71 38.83 38.96 39.04 38.93 38.75 38.27 37.84 37.53 37.12 36.65 36.34 36.07 35.76 35.69 35.68 35.73 36.04 36.05 36.17 36.25 36.21 35.97 35.57 35.12 34.76 34.44 34.13 33.82 33.67 33.49 33.46 33.27 33.19 33.08 32.86 32.72 32.63 32.59 32.50 32.42 32.34 32.34 32.18 32.12 31.92 31.92 31.92 32.00 32.00 32.00 32.15 32.20 32.15 31.92
37.69 37.43 37.32 36.98 37.20 37.46 37.76 38.06 38.16 38.27 38.49 38.68 38.74 38.77 38.85 38.98 39.08 38.97 38.75 38.71 38.17 37.76 37.21 36.53 36.04 35.75 35.71 35.64 35.81 35.73 35.81 36.07 36.03 35.87 35.69 35.41 35.04 34.63 34.22 33.94 33.75 33.60 33.54 33.52 33.58 33.39 33.24 33.16 32.96 32.86 32.66 32.56 32.39 32.32 32.14 32.08 32.08 31.90 31.86 31.98 31.97 32.07 32.22 32.49 32.80 33.08 33.08 32.68 32.23
36.94 37.09 37.24 37.31 37.24 37.34 37.52 37.82 38.01 38.30 38.45 38.71 38.65 38.69 38.74 38.80 38.74 38.52 38.25 38.06 37.66 37.14 36.58 35.98 35.68 35.49 35.50 35.59 35.76 35.73 35.73 35.87 35.71 35.33 34.86 34.52 34.06 33.82 33.64 33.70 33.48 33.51 33.59 33.60 33.49 33.29 33.11 33.00 32.86 32.64 32.48 32.27 32.07 31.89 31.90 31.85 31.72 31.54 31.55 31.94 32.29 32.66 33.10 33.61 33.83 33.80 33.58 33.05 32.88
36.60 36.97 37.24 37.12 37.19 37.22 37.29 37.51 37.81 38.04 38.18 38.40 38.40 38.33 38.19 38.09 37.91 37.83 37.64 37.22 36.93 36.51 36.16 35.80 35.59 35.38 35.24 35.17 35.30 35.25 35.08 35.02 34.81 34.53 34.24 34.00 33.90 33.67 33.69 33.69 33.32 33.18 33.19 33.08 33.02 32.89 32.72 32.58 32.35 32.08 31.99 31.90 31.64 31.49 31.47 31.39 31.23 31.21 31.24 31.48 32.09 32.55 33.00 33.26 33.42 33.40 33.18 32.56 32.34
37.31 37.55 37.72 37.68 37.68 37.47 37.50 37.83 38.06 38.11 38.07 37.96 37.77 37.59 37.37 37.18 37.15 37.06 36.82 36.43 35.88 35.56 35.33 35.14 35.05 34.82 34.67 34.51 34.41 34.25 34.09 33.92 33.83 33.76 33.53 33.39 33.34 33.24 33.34 33.42 33.16 32.96 32.89 33.08 32.94 32.59 32.35 32.20 31.94 31.74 31.67 31.65 31.24 30.97 30.89 30.86 30.83 30.91 30.91 30.86 31.06 31.25 31.30 31.22 31.07 31.07 30.97 30.62 30.37
38.15 38.32 38.58 38.88 38.82 38.85 38.89 39.01 39.02 38.87 38.63 38.19 37.92 37.67 37.33 36.99 36.71 36.21 35.53 35.10 34.74 34.41 34.22 34.32 34.17 34.16 34.03 33.90 33.75 33.52 33.24 32.97 32.89 32.77 32.74 32.73 32.84 32.78 32.87 33.11 33.08 32.97 32.94 33.19 33.41 33.31 33.10 32.62 32.27 32.12 31.80 31.60 31.26 31.07 31.07 31.53 31.24 30.71 30.09 29.95 30.27 30.28 30.25 30.02 30.02 30.30 30.48 30.24 30.47
38.55 38.54 38.74 39.25 39.48 39.67 39.77 39.75 39.44 39.17 38.86 38.49 38.23 38.01 37.56 36.72 35.59 34.74 34.30 34.09 33.98 33.87 33.69 33.57 33.41 33.41 33.41 33.16 33.10 32.87 32.70 32.34 32.25 32.13 32.07 32.09 32.29 32.36 32.55 32.88 32.97 32.99 33.10 33.19 34.63 35.46 35.46 34.36 34.05 33.18 32.21 31.67 31.36 31.02 30.83 30.45 30.04 29.83 29.81 30.19 30.20 30.10 29.92 29.85 29.98 30.23 30.44 30.63 31.15
39.14 39.25 39.32 39.66 39.89 39.87 39.77 39.62 39.36 38.96 38.70 38.50 38.22 37.65 36.74 35.26 34.19 33.71 33.47 33.32 33.41 33.46 33.29 33.04 32.73 32.79 32.86 32.47 32.17 31.96 31.83 31.71 31.68 31.48 31.50 31.66 31.42 31.31 31.42 32.11 32.30 32.46 32.82 34.00 34.94 35.35 35.67 35.99 35.60 34.06 32.20 30.92 30.15 29.78 29.49 29.10 29.07 29.10 29.27 29.67 29.70 29.77 29.85 29.82 29.76 30.20 30.84 31.42 31.49
39.36 39.52 39.61 39.88 39.86 39.64 39.45 39.31 39.02 38.76 38.46 38.15 37.34 36.21 35.04 34.00 33.60 33.25 33.04 32.84 33.03 32.96 32.90 32.57 32.57 32.51 32.34 31.78 31.15 30.81 30.65 30.93 30.92 30.81 30.66 30.51 30.49 30.24 30.32 30.94 31.21 31.56 32.36 34.07 34.81 35.19 35.39 35.75 35.93 35.09 33.25 30.23 28.98 28.39 28.13 27.96 28.30 28.54 28.83 29.13 29.61 29.73 29.71 29.68 29.83 30.08 30.35 30.70 30.74
38.74 38.93 39.05 39.23 39.12 39.10 38.97 39.02 38.57 38.12 37.48 36.53 35.20 34.34 33.78 33.56 33.38 33.11 32.96 32.91 32.61 32.43 32.16 32.00 31.97 31.94 31.78 31.14 30.55 30.11 29.80 29.77 30.06 30.29 30.17 29.79 29.62 29.43 29.40 30.07 29.81 30.52 32.03 34.16 34.74 35.06 35.29 35.57 35.76 35.61 34.28 30.94 29.02 28.22 27.89 27.53 28.11 28.52 28.72 28.72 29.36 29.69 29.73 29.82 29.65 29.48 29.27 29.39 29.51
37.09 37.32 37.43 37.69 37.92 38.05 37.96 37.62 37.05 36.20 35.33 34.35 33.84 33.65 33.53 33.29 33.15 33.05 32.97 32.80 32.36 31.91 31.58 31.54 31.50 31.45 31.22 30.70 30.30 29.96 29.69 29.39 29.94 29.98 29.58 29.03 28.46 28.22 28.22 28.27 28.25 29.52 31.64 34.21 34.62 34.92 35.19 35.47 35.39 35.34 35.02 34.12 30.03 27.97 27.16 27.00 27.55 28.13 28.43 28.74 29.13 29.41 29.52 29.44 29.22 28.72 28.30 27.99 28.35
35.28 35.48 35.66 36.23 36.33 36.27 36.00 35.55 34.93 34.33 33.85 33.56 33.63 33.50 33.32 33.02 33.03 32.89 32.78 32.46 32.02 31.57 31.36 31.32 31.28 30.98 30.65 30.36 30.19 29.95 29.91 29.99 29.80 29.14 28.19 27.24 26.84 26.97 27.27 27.54 27.78 29.08 31.21 33.69 34.34 34.84 35.10 35.39 35.30 34.99 34.73 34.41 31.15 28.83 27.47 27.21 27.29 27.60 28.00 28.51 28.60 28.68 28.65 28.31 27.95 27.64 27.58 27.77 27.89
33.68 33.51 33.76 34.35 34.49 34.42 34.28 34.12 33.99 33.81 33.60 33.44 33.42 33.23 33.06 32.89 32.98 32.95 32.79 32.45 32.04 31.66 31.40 31.37 30.93 30.53 30.18 30.15 29.99 29.73 29.35 29.21 28.68 27.92 27.16 26.49 26.70 26.86 27.05 27.49 27.08 28.38 30.70 33.39 34.22 34.83 35.09 35.27 35.02 34.73 34.35 33.91 31.82 30.04 28.89 28.22 28.00 27.96 28.08 28.27 28.16 27.91 27.86 28.08 27.99 27.91 27.93 28.20 28.24
33.06 32.62 32.35 32.41 32.73 32.95 33.23 33.42 33.47 33.46 33.36 33.24 33.14 33.01 32.96 33.02 33.02 32.97 32.70 32.34 31.77 31.40 31.12 30.95 30.39 29.93 29.60 29.44 29.21 28.90 28.49 28.06 27.57 27.24 26.97 26.68 26.68 26.56 26.72 27.32 26.83 27.84 30.16 33.39 34.25 34.61 34.82 34.84 34.62 34.21 33.86 33.50 31.82 30.15 28.78 28.37 28.15 28.25 28.24 28.12 28.09 28.12 28.15 28.38 28.66 28.75 28.89 28.98 29.01
33.39 32.74 32.14 31.75 32.21 32.59 32.86 33.03 33.01 33.08 33.03 32.93 32.86 32.80 32.90 33.11 32.87 32.61 32.34 31.81 31.32 30.91 30.56 30.26 29.62 29.18 28.86 28.55 28.30 28.05 27.73 27.30 26.92 26.70 26.61 26.47 26.30 26.33 26.63 27.21 27.13 28.72 31.07 33.53 34.14 34.41 34.35 34.30 34.09 33.75 33.36 33.11 31.60 30.03 28.95 28.50 28.72 28.82 28.77 28.69 28.62 28.68 28.79 28.97 29.53 29.75 29.68 29.65 29.67
33.24 33.00 32.90 33.19 33.39 33.21 32.98 32.68 32.59 32.43 32.34 32.20 32.31 32.46 32.76 32.82 32.32 31.85 31.48 31.08 30.86 30.58 30.19 29.92 29.31 28.82 28.38 28.11 27.73 27.35 27.05 27.08 26.79 26.40 26.14 26.10 26.02 26.02 26.25 26.86 27.32 29.72 32.32 33.68 33.86 33.87 33.87 33.72 33.52 33.28 33.06 32.58 31.18 29.92 29.14 29.04 29.28 29.30 29.27 29.22 29.29 29.45 29.66 29.96 30.13 30.29 30.31 30.22 30.34
34.60 34.58 34.78 35.00 34.17 33.46 32.83 32.44 32.27 31.98 31.95 31.98 32.15 32.53 32.64 32.30 31.77 31.22 30.80 30.38 30.10 29.81 29.40 28.98 28.60 28.19 27.78 27.51 27.32 26.99 26.58 26.20 26.24 26.02 25.70 25.49 25.37 25.46 25.71 26.02 26.55 29.22 32.29 33.35 33.45 33.41 33.35 33.21 33.01 32.94 32.62 31.73 30.45 29.89 29.72 29.73 29.61 29.53 29.48 29.56 29.78 29.95 30.09 30.46 30.57 30.65 30.74 30.79 30.88
35.38 34.91 34.30 33.46 32.93 32.64 32.30 32.12 32.12 32.12 32.12 32.15 32.31 32.29 31.99 31.51 30.94 30.55 30.16 29.60 29.02 28.58 28.22 27.78 27.57 27.46 27.30 27.05 26.77 26.61 26.35 26.13 25.93 25.82 25.62 25.19 24.83 24.89 25.11 25.48 25.80 28.33 31.12 32.56 32.84 32.87 32.86 32.81 32.64 32.55 32.19 31.16 30.26 29.92 30.05 29.96 29.85 29.81 29.79 29.69 29.97 30.20 30.36 30.60 30.69 30.89 30.94 31.26 31.28
33.54 32.63 31.91 31.55 31.91 32.05 32.06 32.17 32.17 32.24 32.32 32.36 32.33 31.90 31.09 30.30 29.75 29.38 29.15 28.71 28.17 27.65 27.16 26.94 26.81 26.65 26.54 26.37 26.17 26.11 26.17 26.02 25.75 25.58 25.35 25.12 24.52 24.48 24.68 25.23 25.58 27.04 29.23 31.51 32.16 32.38 32.42 32.41 32.36 32.23 31.65 30.44 29.93 29.76 29.93 30.03 30.18 30.12 30.09 30.11 30.30 30.54 30.78 31.06 31.19 31.29 31.35 31.58 31.72
31.39 31.23 31.17 31.43 31.74 31.99 32.07 32.23 32.24 32.18 32.13 32.26 31.93 31.15 30.18 29.24 28.84 28.60 28.35 28.05 27.49 26.92 26.51 26.41 26.38 26.24 26.10 25.88 25.94 25.92 25.85 25.77 25.40 25.11 24.86 24.63 24.25 24.22 24.49 24.84 25.21 26.18 28.05 30.55 31.54 31.97 32.12 32.11 32.21 32.12 31.57 30.07 29.66 29.76 29.93 30.11 30.14 30.22 30.33 30.56 30.76 31.08 31.36 31.72 31.95 32.02 32.13 32.29 32.62
31.55 31.76 32.05 32.05 32.03 32.00 31.99 32.07 32.11 32.18 32.02 31.83 30.85 29.84 28.90 28.38 28.48 28.64 28.35 27.54 26.94 26.51 26.21 26.05 25.94 25.97 25.86 25.85 25.90 25.75 25.57 25.60 25.17 24.80 24.42 24.08 24.34 25.04 25.48 24.81 25.01 25.92 27.52 30.06 31.11 31.65 31.76 32.01 32.10 32.15 31.86 30.51 30.10 30.03 30.23 30.28 30.27 30.38 30.57 30.93 31.23 31.42 31.81 32.15 32.40 32.50 32.39 32.03 33.26
32.72 32.83 32.82 32.79 32.54 32.43 32.50 32.71 32.66 32.40 31.84 30.95 29.65 28.76 28.40 28.35 28.35 28.40 28.13 26.97 26.61 26.28 26.02 25.83 25.69 25.94 26.13 26.01 25.78 25.35 25.12 25.23 24.97 24.51 23.96 23.47 24.58 26.54 27.24 24.77 24.77 25.54 27.13 29.39 30.77 31.47 31.69 31.88 32.12 32.32 32.01 30.77 30.44 30.43 30.58 30.66 30.72 30.80 31.04 31.27 31.42 31.51 31.58 31.61 31.54 31.35 30.94 30.03 31.01
33.24 33.37 33.34 33.33 33.35 33.39 33.51 33.50 33.04 32.14 31.06 29.78 29.05 28.75 28.59 28.37 27.84 27.43 27.11 26.42 26.20 26.01 25.94 25.95 25.70 25.72 25.63 25.50 25.44 25.07 24.56 24.41 24.32 24.05 23.61 23.06 24.02 25.89 26.73 24.48 24.85 25.42 26.50 28.47 30.29 31.21 31.65 31.87 32.09 32.15 31.95 30.85 30.72 30.82 31.14 31.24 30.99 30.88 30.83 30.81 30.67 30.26 29.88 29.48 29.14 28.98 28.69 28.18 28.41
MSLP
1012.22 1012.14 1012.18 1012.30 1012.46 1012.66 1012.82 1012.98 1013.14 1013.30 1013.46 1013.74 1014.02 1014.30 1014.62 1014.94 1015.22 1015.46 1015.58 1015.66 1015.82 1015.94 1016.10 1016.22 1016.42 1016.66 1016.86 1017.14 1017.46 1017.70 1017.94 1018.14 1018.30 1018.42 1018.54 1018.70 1018.78 1018.86 1018.94 1018.98 1019.02 1018.98 1018.94 1018.90 1018.86 1018.82 1018.74 1018.74 1018.74 1018.62 1018.58 1018.50 1018.50 1018.46 1018.42 1018.38 1018.38 1018.34 1018.30 1018.22 1018.14 1018.06 1018.02 1017.98 1017.86 1017.82 1017.74 1017.62 1017.54
1012.42 1012.34 1012.30 1012.42 1012.50 1012.66 1012.90 1013.18 1013.38 1013.54 1013.66 1013.86 1014.14 1014.42 1014.70 1015.02 1015.30 1015.54 1015.66 1015.78 1015.90 1016.02 1016.18 1016.34 1016.62 1016.86 1017.14 1017.42 1017.62 1017.86 1018.10 1018.30 1018.42 1018.54 1018.66 1018.78 1018.86 1018.90 1018.94 1018.98 1018.94 1018.90 1018.86 1018.82 1018.78 1018.74 1018.66 1018.58 1018.58 1018.50 1018.42 1018.42 1018.42 1018.42 1018.30 1018.26 1018.26 1018.22 1018.18 1018.10 1018.02 1017.94 1017.86 1017.82 1017.74 1017.66 1017.58 1017.46 1017.38
1012.86 1012.74 1012.66 1012.70 1012.74 1012.94 1013.18 1013.46 1013.66 1013.82 1013.94 1014.14 1014.42 1014.62 1014.86 1015.14 1015.42 1015.62 1015.82 1015.94 1016.02 1016.14 1016.34 1016.62 1016.94 1017.22 1017.46 1017.66 1017.86 1018.02 1018.22 1018.38 1018.54 1018.66 1018.74 1018.86 1018.86 1018.86 1018.86 1018.86 1018.86 1018.78 1018.74 1018.74 1018.70 1018.62 1018.54 1018.46 1018.42 1018.38 1018.34 1018.30 1018.30 1018.30 1018.22 1018.14 1018.10 1018.10 1018.02 1017.94 1017.86 1017.78 1017.74 1017.62 1017.54 1017.46 1017.38 1017.30 1017.22
1013.34 1013.30 1013.30 1013.26 1013.30 1013.38 1013.58 1013.74 1013.90 1014.02 1014.18 1014.34 1014.58 1014.86 1015.10 1015.30 1015.54 1015.74 1015.86 1016.02 1016.14 1016.34 1016.62 1016.94 1017.18 1017.46 1017.66 1017.86 1018.02 1018.22 1018.38 1018.50 1018.62 1018.74 1018.78 1018.86 1018.86 1018.82 1018.78 1018.78 1018.74 1018.70 1018.62 1018.58 1018.50 1018.42 1018.38 1018.34 1018.30 1018.26 1018.22 1018.18 1018.18 1018.14 1018.06 1017.98 1017.94 1017.90 1017.86 1017.74 1017.66 1017.62 1017.58 1017.46 1017.38 1017.30 1017.22 1017.14 1017.10
1013.78 1013.82 1013.86 1013.82 1013.82 1013.86 1014.02 1014.14 1014.22 1014.30 1014.42 1014.58 1014.78 1015.02 1015.30 1015.46 1015.66 1015.82 1015.98 1016.14 1016.34 1016.58 1016.86 1017.10 1017.38 1017.58 1017.86 1018.02 1018.22 1018.42 1018.54 1018.62 1018.74 1018.82 1018.86 1018.86 1018.82 1018.78 1018.74 1018.70 1018.62 1018.58 1018.50 1018.42 1018.38 1018.30 1018.22 1018.22 1018.14 1018.10 1018.06 1018.02 1017.98 1017.90 1017.86 1017.82 1017.74 1017.70 1017.62 1017.54 1017.46 1017.46 1017.38 1017.30 1017.18 1017.14 1017.06 1016.98 1016.86
1014.14 1014.18 1014.18 1014.18 1014.18 1014.22 1014.30 1014.42 1014.46 1014.54 1014.66 1014.82 1014.98 1015.14 1015.30 1015.50 1015.66 1015.86 1016.10 1016.34 1016.58 1016.82 1017.06 1017.34 1017.58 1017.86 1018.06 1018.26 1018.42 1018.54 1018.62 1018.74 1018.74 1018.82 1018.86 1018.86 1018.74 1018.74 1018.66 1018.58 1018.50 1018.42 1018.34 1018.30 1018.18 1018.14 1018.10 1018.06 1018.02 1017.98 1017.90 1017.86 1017.78 1017.70 1017.62 1017.62 1017.58 1017.54 1017.46 1017.38 1017.30 1017.22 1017.14 1017.10 1016.98 1016.90 1016.86 1016.86 1016.74
1014.38 1014.42 1014.42 1014.46 1014.50 1014.58 1014.58 1014.66 1014.74 1014.78 1014.86 1015.02 1015.14 1015.22 1015.30 1015.50 1015.74 1016.02 1016.30 1016.54 1016.78 1017.02 1017.30 1017.58 1017.82 1018.06 1018.22 1018.38 1018.50 1018.62 1018.70 1018.74 1018.74 1018.78 1018.78 1018.74 1018.66 1018.58 1018.50 1018.42 1018.30 1018.26 1018.14 1018.06 1018.02 1017.94 1017.90 1017.86 1017.86 1017.78 1017.74 1017.66 1017.58 1017.50 1017.46 1017.46 1017.42 1017.34 1017.30 1017.18 1017.06 1017.02 1016.98 1016.86 1016.78 1016.74 1016.70 1016.66 1016.62
1014.50 1014.58 1014.66 1014.70 1014.74 1014.82 1014.86 1014.94 1015.02 1015.06 1015.14 1015.18 1015.30 1015.38 1015.46 1015.62 1015.86 1016.14 1016.42 1016.70 1016.94 1017.18 1017.42 1017.66 1017.86 1018.10 1018.26 1018.42 1018.50 1018.62 1018.70 1018.74 1018.74 1018.70 1018.62 1018.58 1018.50 1018.38 1018.30 1018.18 1018.14 1018.02 1017.94 1017.86 1017.86 1017.78 1017.74 1017.74 1017.70 1017.62 1017.58 1017.50 1017.46 1017.34 1017.30 1017.26 1017.22 1017.18 1017.14 1017.06 1016.94 1016.86 1016.78 1016.74 1016.62 1016.58 1016.58 1016.50 1016.46
1014.70 1014.74 1014.78 1014.86 1014.94 1015.02 1015.06 1015.14 1015.26 1015.30 1015.38 1015.46 1015.58 1015.62 1015.74 1015.90 1016.14 1016.38 1016.62 1016.86 1017.06 1017.26 1017.46 1017.70 1017.86 1018.02 1018.22 1018.34 1018.46 1018.58 1018.58 1018.58 1018.58 1018.50 1018.42 1018.30 1018.22 1018.14 1018.02 1017.98 1017.90 1017.86 1017.74 1017.74 1017.70 1017.66 1017.62 1017.58 1017.58 1017.50 1017.46 1017.38 1017.30 1017.22 1017.14 1017.10 1017.10 1017.06 1017.02 1016.94 1016.82 1016.74 1016.66 1016.58 1016.54 1016.50 1016.46 1016.42 1016.38
1014.86 1014.86 1014.94 1015.02 1015.10 1015.14 1015.22 1015.30 1015.42 1015.46 1015.58 1015.70 1015.78 1015.86 1016.02 1016.14 1016.34 1016.58 1016.74 1016.94 1017.14 1017.30 1017.50 1017.74 1017.90 1018.10 1018.26 1018.34 1018.42 1018.46 1018.46 1018.42 1018.34 1018.26 1018.14 1018.02 1017.98 1017.90 1017.86 1017.78 1017.74 1017.70 1017.66 1017.58 1017.58 1017.54 1017.54 1017.50 1017.46 1017.38 1017.30 1017.26 1017.18 1017.14 1017.02 1017.02 1017.02 1016.98 1016.90 1016.82 1016.74 1016.66 1016.58 1016.46 1016.42 1016.38 1016.38 1016.30 1016.30
1014.90 1014.98 1015.02 1015.14 1015.22 1015.30 1015.34 1015.46 1015.58 1015.66 1015.74 1015.86 1015.98 1016.10 1016.18 1016.34 1016.50 1016.66 1016.82 1016.94 1017.14 1017.34 1017.58 1017.74 1017.90 1018.06 1018.18 1018.26 1018.26 1018.26 1018.22 1018.14 1018.06 1017.98 1017.86 1017.82 1017.78 1017.74 1017.70 1017.62 1017.58 1017.54 1017.50 1017.46 1017.42 1017.38 1017.34 1017.30 1017.30 1017.22 1017.14 1017.10 1017.06 1017.02 1016.94 1016.86 1016.86 1016.82 1016.74 1016.62 1016.58 1016.50 1016.46 1016.34 1016.30 1016.26 1016.22 1016.18 1016.14
1015.02 1015.06 1015.14 1015.22 1015.30 1015.38 1015.50 1015.58 1015.74 1015.82 1015.90 1016.02 1016.14 1016.30 1016.38 1016.50 1016.62 1016.74 1016.86 1017.02 1017.18 1017.38 1017.54 1017.66 1017.78 1017.90 1017.98 1018.02 1017.98 1017.98 1017.90 1017.86 1017.78 1017.74 1017.74 1017.66 1017.62 1017.58 1017.54 1017.46 1017.46 1017.38 1017.34 1017.30 1017.26 1017.22 1017.18 1017.18 1017.14 1017.10 1017.02 1016.98 1016.90 1016.86 1016.82 1016.74 1016.70 1016.66 1016.58 1016.50 1016.42 1016.38 1016.30 1016.22 1016.14 1016.10 1016.06 1016.02 1015.98
1015.06 1015.14 1015.22 1015.34 1015.42 1015.50 1015.62 1015.74 1015.86 1016.02 1016.10 1016.18 1016.30 1016.42 1016.58 1016.66 1016.74 1016.86 1016.94 1017.06 1017.22 1017.38 1017.46 1017.54 1017.58 1017.66 1017.74 1017.74 1017.70 1017.66 1017.66 1017.62 1017.58 1017.58 1017.54 1017.50 1017.46 1017.46 1017.42 1017.34 1017.30 1017.26 1017.22 1017.14 1017.14 1017.14 1017.14 1017.10 1017.06 1017.02 1016.98 1016.86 1016.82 1016.74 1016.70 1016.66 1016.58 1016.54 1016.46 1016.42 1016.34 1016.30 1016.18 1016.10 1016.02 1015.98 1015.94 1015.90 1015.86
1015.14 1015.18 1015.30 1015.42 1015.58 1015.70 1015.82 1015.94 1016.06 1016.18 1016.30 1016.38 1016.46 1016.58 1016.70 1016.74 1016.86 1016.94 1017.02 1017.14 1017.30 1017.34 1017.42 1017.46 1017.50 1017.54 1017.58 1017.58 1017.50 1017.50 1017.50 1017.46 1017.46 1017.46 1017.42 1017.34 1017.30 1017.30 1017.30 1017.22 1017.18 1017.14 1017.10 1017.02 1017.02 1017.06 1017.02 1017.02 1016.98 1016.90 1016.86 1016.82 1016.74 1016.66 1016.58 1016.54 1016.50 1016.42 1016.38 1016.30 1016.26 1016.14 1016.06 1016.02 1015.94 1015.86 1015.82 1015.82 1015.74
1015.14 1015.26 1015.34 1015.46 1015.66 1015.82 1015.98 1016.10 1016.22 1016.30 1016.42 1016.54 1016.58 1016.70 1016.78 1016.86 1016.94 1017.02 1017.14 1017.22 1017.30 1017.34 1017.42 1017.46 1017.50 1017.46 1017.46 1017.42 1017.38 1017.34 1017.34 1017.30 1017.30 1017.30 1017.30 1017.26 1017.22 1017.18 1017.14 1017.10 1017.06 1017.02 1017.02 1016.94 1016.94 1016.94 1016.90 1016.86 1016.86 1016.78 1016.74 1016.70 1016.58 1016.54 1016.46 1016.42 1016.38 1016.30 1016.26 1016.18 1016.14 1016.02 1015.94 1015.86 1015.86 1015.78 1015.74 1015.70 1015.62
1015.18 1015.30 1015.38 1015.58 1015.74 1015.90 1016.02 1016.18 1016.26 1016.38 1016.50 1016.58 1016.70 1016.74 1016.86 1016.98 1017.02 1017.14 1017.22 1017.30 1017.38 1017.46 1017.50 1017.50 1017.50 1017.46 1017.34 1017.30 1017.30 1017.26 1017.22 1017.22 1017.18 1017.18 1017.18 1017.14 1017.10 1017.06 1017.02 1017.02 1016.98 1016.94 1016.86 1016.86 1016.82 1016.78 1016.74 1016.74 1016.74 1016.66 1016.58 1016.58 1016.50 1016.42 1016.34 1016.30 1016.22 1016.18 1016.10 1016.02 1015.94 1015.86 1015.82 1015.74 1015.70 1015.66 1015.58 1015.54 1015.50
1015.30 1015.34 1015.42 1015.58 1015.74 1015.90 1016.06 1016.18 1016.30 1016.38 1016.50 1016.58 1016.74 1016.82 1016.94 1017.02 1017.14 1017.26 1017.34 1017.46 1017.50 1017.58 1017.58 1017.58 1017.46 1017.38 1017.30 1017.26 1017.18 1017.14 1017.14 1017.10 1017.06 1017.06 1017.06 1017.02 1017.02 1016.94 1016.90 1016.86 1016.86 1016.82 1016.78 1016.74 1016.74 1016.70 1016.62 1016.58 1016.54 1016.50 1016.46 1016.42 1016.38 1016.30 1016.18 1016.14 1016.06 1016.02 1015.94 1015.86 1015.74 1015.70 1015.62 1015.58 1015.54 1015.50 1015.46 1015.38 1015.30
1015.30 1015.38 1015.46 1015.58 1015.74 1015.86 1016.02 1016.14 1016.30 1016.34 1016.46 1016.58 1016.74 1016.86 1017.02 1017.14 1017.30 1017.42 1017.46 1017.54 1017.58 1017.58 1017.58 1017.46 1017.38 1017.30 1017.18 1017.14 1017.10 1017.02 1017.02 1016.98 1016.98 1016.94 1016.90 1016.86 1016.86 1016.82 1016.78 1016.74 1016.74 1016.70 1016.70 1016.62 1016.62 1016.58 1016.54 1016.42 1016.38 1016.34 1016.34 1016.30 1016.18 1016.14 1016.02 1015.98 1015.86 1015.82 1015.74 1015.62 1015.58 1015.50 1015.46 1015.38 1015.30 1015.30 1015.26 1015.18 1015.10
1015.34 1015.42 1015.50 1015.62 1015.74 1015.86 1016.02 1016.14 1016.26 1016.38 1016.50 1016.66 1016.82 1017.02 1017.18 1017.30 1017.42 1017.46 1017.50 1017.54 1017.50 1017.46 1017.34 1017.30 1017.18 1017.10 1017.02 1016.98 1016.98 1016.90 1016.86 1016.86 1016.82 1016.82 1016.78 1016.74 1016.74 1016.70 1016.70 1016.66 1016.62 1016.58 1016.58 1016.54 1016.46 1016.42 1016.38 1016.30 1016.26 1016.22 1016.14 1016.10 1016.02 1015.94 1015.86 1015.74 1015.70 1015.58 1015.50 1015.46 1015.38 1015.30 1015.22 1015.14 1015.10 1015.02 1015.02 1014.94 1014.86
1015.42 1015.46 1015.58 1015.70 1015.78 1015.90 1016.02 1016.14 1016.30 1016.46 1016.62 1016.74 1016.94 1017.10 1017.26 1017.34 1017.38 1017.42 1017.42 1017.34 1017.26 1017.18 1017.14 1017.06 1017.02 1016.94 1016.86 1016.82 1016.82 1016.74 1016.74 1016.70 1016.70 1016.70 1016.66 1016.66 1016.62 1016.58 1016.58 1016.58 1016.54 1016.50 1016.46 1016.42 1016.34 1016.30 1016.26 1016.18 1016.10 1016.02 1015.98 1015.90 1015.82 1015.74 1015.66 1015.58 1015.50 1015.42 1015.30 1015.22 1015.14 1015.10 1015.02 1014.94 1014.86 1014.78 1014.74 1014.70 1014.62
1015.50 1015.58 1015.66 1015.74 1015.82 1015.90 1016.02 1016.18 1016.34 1016.50 1016.66 1016.82 1016.98 1017.10 1017.14 1017.22 1017.22 1017.18 1017.14 1017.06 1016.98 1016.94 1016.90 1016.90 1016.86 1016.82 1016.74 1016.70 1016.70 1016.62 1016.58 1016.58 1016.58 1016.58 1016.58 1016.58 1016.54 1016.50 1016.46 1016.42 1016.38 1016.34 1016.30 1016.26 1016.18 1016.14 1016.06 1016.02 1015.94 1015.86 1015.78 1015.74 1015.62 1015.54 1015.46 1015.38 1015.30 1015.14 1015.06 1015.02 1014.90 1014.86 1014.74 1014.66 1014.58 1014.54 1014.46 1014.42 1014.42
1015.62 1015.70 1015.74 1015.86 1015.90 1016.02 1016.14 1016.30 1016.42 1016.54 1016.70 1016.82 1016.94 1017.02 1017.02 1017.02 1017.02 1016.94 1016.86 1016.82 1016.82 1016.82 1016.78 1016.74 1016.74 1016.70 1016.66 1016.62 1016.62 1016.58 1016.54 1016.50 1016.50 1016.50 1016.50 1016.42 1016.42 1016.38 1016.30 1016.30 1016.30 1016.22 1016.14 1016.10 1016.02 1015.94 1015.86 1015.78 1015.74 1015.66 1015.58 1015.50 1015.42 1015.30 1015.26 1015.14 1015.06 1014.98 1014.86 1014.78 1014.70 1014.58 1014.50 1014.42 1014.38 1014.34 1014.30 1014.30 1014.30
1015.74 1015.82 1015.90 1016.02 1016.10 1016.14 1016.26 1016.38 1016.50 1016.62 1016.78 1016.86 1016.90 1016.86 1016.86 1016.82 1016.74 1016.74 1016.70 1016.70 1016.70 1016.70 1016.70 1016.66 1016.66 1016.62 1016.58 1016.58 1016.58 1016.58 1016.50 1016.46 1016.42 1016.42 1016.38 1016.34 1016.30 1016.26 1016.22 1016.14 1016.14 1016.10 1016.02 1015.94 1015.86 1015.78 1015.70 1015.58 1015.50 1015.46 1015.38 1015.30 1015.18 1015.10 1015.02 1014.90 1014.86 1014.74 1014.66 1014.58 1014.50 1014.42 1014.34 1014.30 1014.26 1014.22 1014.18 1014.18 1014.18
1015.94 1016.02 1016.14 1016.22 1016.30 1016.34 1016.42 1016.58 1016.74 1016.86 1016.94 1016.98 1016.86 1016.74 1016.70 1016.66 1016.62 1016.62 1016.62 1016.62 1016.62 1016.62 1016.62 1016.62 1016.58 1016.58 1016.58 1016.54 1016.50 1016.50 1016.46 1016.42 1016.42 1016.34 1016.26 1016.22 1016.22 1016.14 1016.10 1016.02 1015.98 1015.90 1015.86 1015.74 1015.62 1015.58 1015.46 1015.42 1015.30 1015.22 1015.14 1015.06 1015.02 1014.90 1014.82 1014.74 1014.62 1014.58 1014.54 1014.46 1014.34 1014.30 1014.22 1014.14 1014.14 1014.10 1014.06 1014.06 1014.02
1016.10 1016.18 1016.26 1016.30 1016.38 1016.46 1016.62 1016.74 1016.86 1016.94 1016.90 1016.78 1016.70 1016.62 1016.58 1016.54 1016.54 1016.54 1016.58 1016.58 1016.58 1016.58 1016.58 1016.58 1016.58 1016.54 1016.50 1016.46 1016.42 1016.38 1016.38 1016.38 1016.34 1016.30 1016.26 1016.14 1016.10 1016.02 1016.02 1015.90 1015.82 1015.74 1015.66 1015.58 1015.42 1015.30 1015.22 1015.18 1015.14 1015.02 1014.94 1014.86 1014.78 1014.74 1014.66 1014.58 1014.58 1014.54 1014.46 1014.42 1014.30 1014.22 1014.14 1014.10 1014.06 1014.02 1013.98 1013.98 1013.94
1016.14 1016.18 1016.26 1016.34 1016.42 1016.50 1016.62 1016.74 1016.78 1016.74 1016.66 1016.58 1016.54 1016.50 1016.42 1016.42 1016.42 1016.46 1016.46 1016.50 1016.54 1016.54 1016.54 1016.54 1016.50 1016.46 1016.42 1016.42 1016.34 1016.34 1016.34 1016.30 1016.26 1016.22 1016.14 1016.10 1016.02 1015.94 1015.86 1015.74 1015.66 1015.58 1015.50 1015.34 1015.22 1015.14 1015.06 1015.02 1014.90 1014.86 1014.82 1014.78 1014.74 1014.74 1014.66 1014.58 1014.54 1014.50 1014.42 1014.38 1014.30 1014.22 1014.14 1014.02 1013.94 1013.86 1013.86 1013.82 1013.78
1016.14 1016.18 1016.22 1016.26 1016.34 1016.42 1016.46 1016.50 1016.50 1016.50 1016.46 1016.42 1016.38 1016.38 1016.42 1016.38 1016.34 1016.34 1016.38 1016.46 1016.50 1016.50 1016.46 1016.46 1016.46 1016.42 1016.42 1016.42 1016.38 1016.34 1016.30 1016.22 1016.14 1016.10 1016.02 1016.02 1015.90 1015.82 1015.74 1015.62 1015.58 1015.46 1015.34 1015.22 1015.14 1015.02 1014.94 1014.86 1014.78 1014.74 1014.70 1014.74 1014.70 1014.66 1014.62 1014.58 1014.50 1014.42 1014.34 1014.30 1014.26 1014.14 1014.06 1013.94 1013.86 1013.74 1013.70 1013.66 1013.62
1016.14 1016.14 1016.18 1016.22 1016.26 1016.30 1016.30 1016.30 1016.34 1016.30 1016.30 1016.30 1016.30 1016.34 1016.30 1016.30 1016.26 1016.30 1016.34 1016.42 1016.42 1016.46 1016.42 1016.42 1016.42 1016.38 1016.34 1016.34 1016.34 1016.30 1016.22 1016.14 1016.02 1015.98 1015.90 1015.86 1015.78 1015.70 1015.62 1015.50 1015.42 1015.30 1015.22 1015.10 1015.02 1014.86 1014.78 1014.74 1014.66 1014.58 1014.54 1014.58 1014.58 1014.58 1014.54 1014.50 1014.42 1014.30 1014.26 1014.22 1014.10 1014.02 1013.94 1013.86 1013.74 1013.62 1013.58 1013.50 1013.46
1016.06 1016.14 1016.14 1016.22 1016.22 1016.18 1016.18 1016.18 1016.18 1016.22 1016.26 1016.26 1016.26 1016.22 1016.14 1016.18 1016.22 1016.30 1016.34 1016.42 1016.42 1016.42 1016.42 1016.42 1016.30 1016.30 1016.30 1016.30 1016.26 1016.18 1016.10 1016.02 1015.94 1015.82 1015.74 1015.74 1015.62 1015.58 1015.50 1015.42 1015.30 1015.14 1015.02 1014.94 1014.86 1014.74 1014.66 1014.58 1014.50 1014.46 1014.42 1014.42 1014.46 1014.46 1014.42 1014.42 1014.30 1014.22 1014.14 1014.06 1013.94 1013.86 1013.74 1013.66 1013.58 1013.50 1013.46 1013.34 1013.26
1016.02 1016.06 1016.10 1016.10 1016.14 1016.10 1016.06 1016.10 1016.10 1016.14 1016.14 1016.14 1016.10 1016.10 1016.14 1016.18 1016.26 1016.30 1016.34 1016.38 1016.38 1016.34 1016.30 1016.26 1016.26 1016.30 1016.30 1016.22 1016.14 1016.02 1015.94 1015.86 1015.78 1015.74 1015.66 1015.62 1015.58 1015.46 1015.34 1015.22 1015.14 1015.02 1014.90 1014.78 1014.70 1014.58 1014.50 1014.42 1014.34 1014.30 1014.30 1014.26 1014.30 1014.30 1014.26 1014.22 1014.14 1014.10 1013.98 1013.86 1013.74 1013.66 1013.58 1013.50 1013.42 1013.30 1013.18 1013.06 1012.98
1015.86 1015.94 1016.02 1016.02 1016.02 1016.02 1016.02 1016.02 1016.02 1015.98 1015.98 1016.02 1016.06 1016.14 1016.18 1016.22 1016.30 1016.30 1016.30 1016.30 1016.30 1016.22 1016.18 1016.14 1016.22 1016.22 1016.14 1016.02 1016.02 1015.94 1015.86 1015.74 1015.66 1015.58 1015.58 1015.54 1015.46 1015.34 1015.22 1015.10 1015.02 1014.90 1014.78 1014.70 1014.58 1014.46 1014.42 1014.30 1014.26 1014.22 1014.18 1014.14 1014.14 1014.14 1014.10 1014.02 1013.98 1013.86 1013.78 1013.66 1013.54 1013.46 1013.34 1013.26 1013.10 1013.02 1012.90 1012.78 1012.70
1015.74 1015.82 1015.86 1015.90 1015.94 1015.94 1015.90 1015.86 1015.86 1015.90 1015.94 1016.02 1016.06 1016.14 1016.22 1016.26 1016.26 1016.26 1016.22 1016.14 1016.14 1016.14 1016.14 1016.10 1016.14 1016.10 1016.02 1015.94 1015.86 1015.82 1015.74 1015.66 1015.58 1015.54 1015.46 1015.42 1015.30 1015.22 1015.10 1015.02 1014.90 1014.82 1014.74 1014.58 1014.46 1014.38 1014.30 1014.22 1014.18 1014.14 1014.10 1014.02 1014.02 1014.02 1013.94 1013.86 1013.78 1013.66 1013.54 1013.42 1013.30 1013.18 1013.06 1012.90 1012.82 1012.66 1012.54 1012.42 1012.38
1015.58 1015.66 1015.74 1015.82 1015.82 1015.82 1015.78 1015.78 1015.82 1015.86 1015.94 1016.02 1016.14 1016.18 1016.22 1016.22 1016.22 1016.14 1016.14 1016.06 1016.06 1016.06 1016.06 1016.06 1016.02 1016.02 1015.98 1015.90 1015.78 1015.70 1015.62 1015.58 1015.46 1015.38 1015.30 1015.26 1015.22 1015.14 1015.02 1014.86 1014.82 1014.70 1014.58 1014.42 1014.34 1014.30 1014.22 1014.14 1014.10 1014.02 1013.98 1013.90 1013.86 1013.86 1013.78 1013.66 1013.58 1013.42 1013.30 1013.14 1013.02 1012.86 1012.74 1012.58 1012.46 1012.34 1012.22 1012.14 1012.06
1015.46 1015.50 1015.58 1015.66 1015.70 1015.70 1015.74 1015.74 1015.82 1015.90 1016.02 1016.14 1016.14 1016.14 1016.14 1016.14 1016.14 1016.10 1016.06 1016.02 1015.98 1015.94 1015.94 1015.94 1015.90 1015.86 1015.82 1015.78 1015.70 1015.62 1015.54 1015.46 1015.34 1015.26 1015.22 1015.14 1015.10 1015.02 1014.90 1014.78 1014.66 1014.54 1014.42 1014.34 1014.30 1014.18 1014.14 1014.06 1014.02 1013.90 1013.86 1013.74 1013.74 1013.66 1013.58 1013.42 1013.30 1013.14 1012.98 1012.86 1012.66 1012.50 1012.38 1012.26 1012.14 1012.02 1011.86 1011.74 1011.66
1015.26 1015.34 1015.46 1015.54 1015.58 1015.62 1015.74 1015.78 1015.86 1015.98 1016.06 1016.14 1016.14 1016.14 1016.10 1016.10 1016.10 1016.02 1015.98 1015.90 1015.86 1015.86 1015.86 1015.82 1015.74 1015.74 1015.66 1015.62 1015.58 1015.50 1015.46 1015.30 1015.26 1015.18 1015.14 1015.06 1015.02 1014.94 1014.82 1014.70 1014.54 1014.42 1014.34 1014.30 1014.18 1014.14 1014.02 1013.98 1013.86 1013.74 1013.66 1013.58 1013.54 1013.42 1013.30 1013.18 1013.02 1012.86 1012.70 1012.54 1012.34 1012.14 1012.02 1011.90 1011.74 1011.58 1011.46 1011.38 1011.26
1015.10 1015.26 1015.42 1015.50 1015.58 1015.70 1015.78 1015.86 1015.98 1016.02 1016.06 1016.10 1016.10 1016.10 1016.10 1016.06 1016.02 1015.90 1015.86 1015.82 1015.82 1015.82 1015.78 1015.74 1015.70 1015.66 1015.58 1015.54 1015.46 1015.38 1015.34 1015.30 1015.18 1015.10 1015.02 1014.94 1014.86 1014.82 1014.70 1014.58 1014.50 1014.42 1014.30 1014.22 1014.14 1014.02 1013.94 1013.82 1013.70 1013.58 1013.46 1013.42 1013.30 1013.18 1013.02 1012.90 1012.74 1012.58 1012.38 1012.22 1012.02 1011.82 1011.62 1011.46 1011.30 1011.18 1011.06 1010.98 1010.86
1015.14 1015.30 1015.46 1015.58 1015.70 1015.78 1015.86 1015.94 1015.98 1016.02 1016.06 1016.06 1016.10 1016.14 1016.14 1016.02 1015.90 1015.82 1015.74 1015.74 1015.78 1015.78 1015.74 1015.70 1015.66 1015.58 1015.54 1015.46 1015.38 1015.30 1015.22 1015.14 1015.10 1015.02 1014.94 1014.86 1014.78 1014.74 1014.66 1014.58 1014.42 1014.38 1014.30 1014.14 1014.06 1013.94 1013.82 1013.66 1013.54 1013.42 1013.30 1013.22 1013.10 1012.94 1012.82 1012.66 1012.46 1012.26 1012.06 1011.86 1011.66 1011.42 1011.18 1011.06 1010.90 1010.78 1010.70 1010.58 1010.54
1015.18 1015.30 1015.50 1015.66 1015.78 1015.86 1015.90 1015.98 1016.02 1016.02 1016.06 1016.10 1016.14 1016.06 1016.02 1015.86 1015.78 1015.74 1015.70 1015.70 1015.74 1015.74 1015.74 1015.62 1015.58 1015.54 1015.46 1015.34 1015.30 1015.18 1015.10 1015.02 1015.02 1014.94 1014.86 1014.78 1014.74 1014.70 1014.62 1014.50 1014.42 1014.30 1014.22 1014.10 1013.94 1013.82 1013.66 1013.54 1013.38 1013.26 1013.14 1013.02 1012.86 1012.74 1012.58 1012.42 1012.18 1011.98 1011.78 1011.58 1011.30 1011.02 1010.86 1010.74 1010.66 1010.58 1010.46 1010.42 1010.34
1015.26 1015.38 1015.54 1015.70 1015.78 1015.86 1015.90 1015.98 1016.02 1016.06 1016.10 1016.14 1016.06 1015.98 1015.86 1015.78 1015.70 1015.62 1015.58 1015.58 1015.62 1015.66 1015.66 1015.58 1015.54 1015.42 1015.30 1015.22 1015.14 1015.10 1015.02 1014.90 1014.86 1014.82 1014.78 1014.74 1014.66 1014.58 1014.54 1014.46 1014.38 1014.26 1014.14 1013.98 1013.86 1013.70 1013.58 1013.38 1013.22 1013.06 1012.94 1012.82 1012.70 1012.54 1012.34 1012.14 1011.94 1011.74 1011.50 1011.30 1011.02 1010.82 1010.70 1010.62 1010.58 1010.50 1010.42 1010.34 1010.26
1015.38 1015.46 1015.58 1015.70 1015.78 1015.86 1015.94 1016.02 1016.06 1016.10 1016.06 1016.02 1015.90 1015.86 1015.74 1015.70 1015.58 1015.54 1015.50 1015.54 1015.54 1015.54 1015.54 1015.50 1015.42 1015.30 1015.18 1015.14 1015.10 1015.02 1014.90 1014.82 1014.74 1014.74 1014.70 1014.70 1014.58 1014.46 1014.42 1014.42 1014.30 1014.14 1014.02 1013.86 1013.74 1013.58 1013.46 1013.26 1013.06 1012.90 1012.74 1012.62 1012.50 1012.34 1012.14 1011.98 1011.74 1011.50 1011.30 1011.10 1010.98 1010.82 1010.70 1010.62 1010.58 1010.50 1010.42 1010.34 1010.18
1015.46 1015.54 1015.62 1015.74 1015.86 1015.98 1016.02 1016.06 1016.02 1015.98 1015.86 1015.78 1015.74 1015.70 1015.62 1015.54 1015.54 1015.50 1015.46 1015.46 1015.46 1015.46 1015.42 1015.38 1015.30 1015.18 1015.14 1015.06 1015.02 1014.98 1014.86 1014.78 1014.74 1014.66 1014.66 1014.62 1014.54 1014.42 1014.34 1014.30 1014.18 1014.06 1013.94 1013.82 1013.66 1013.50 1013.30 1013.14 1012.94 1012.74 1012.58 1012.46 1012.34 1012.18 1012.02 1011.78 1011.58 1011.34 1011.18 1011.06 1011.02 1010.90 1010.78 1010.66 1010.58 1010.46 1010.34 1010.22 1010.10
Wind_Speed
3 3 3 4 4 4 4 3 4 4 5 5 5 5 4 4 4 4 3 3 3 3 3 3 3 4 5 6 6 5 4 4 4 5 5 6 6 6 6 7 7 7 8 8 8 8 7 6 5 5 4 4 4 4 4 4 4 5 5 6 6 5 6 7 7 7 8 8 6
3 2 3 4 4 4 4 4 4 4 4 4 4 4 5 5 4 4 4 4 4 4 4 4 5 5 5 5 5 4 3 3 4 4 5 5 6 6 7 7 7 8 8 8 8 7 6 6 5 4 4 4 4 4 5 5 5 5 6 7 6 5 5 6 7 7 7 7 6
6 5 5 4 5 5 5 4 4 5 5 5 5 5 5 5 4 4 4 4 4 5 5 5 5 5 5 5 4 3 3 3 3 4 4 5 6 6 7 7 7 8 8 8 7 7 6 6 5 5 4 4 5 5 5 5 5 5 6 7 6 5 5 6 6 6 6 5 6
8 8 7 6 7 7 6 4 5 6 6 5 6 6 5 5 4 4 4 5 5 6 6 5 4 5 5 5 4 4 4 4 4 4 5 5 6 7 7 7 8 8 8 8 8 7 7 6 5 5 5 5 6 6 6 6 6 5 5 5 5 5 6 6 6 5 5 5 6
8 8 7 7 7 7 6 5 5 6 6 5 5 5 5 4 4 4 4 4 5 5 6 6 5 5 5 5 5 4 4 5 5 5 5 6 7 7 8 8 9 9 8 8 8 8 7 7 5 5 5 6 6 6 6 7 7 6 6 5 5 5 6 6 5 5 5 5 5
6 6 7 7 7 6 6 5 6 6 6 5 5 5 5 4 4 4 5 5 5 6 6 6 5 4 4 4 4 4 4 4 5 5 6 7 7 8 9 9 9 9 8 8 8 8 8 7 6 5 6 6 6 7 7 8 7 7 7 6 6 6 5 6 5 5 6 6 6
6 6 7 7 7 6 6 5 5 5 5 5 5 6 6 6 6 6 6 5 5 5 4 3 3 2 1 2 2 3 4 4 5 6 7 7 8 9 9 10 10 10 9 9 8 8 8 7 6 6 6 6 6 7 8 8 7 7 7 7 7 6 6 7 6 5 6 8 8
6 6 6 6 6 6 6 5 5 4 4 4 5 6 7 8 8 7 7 6 4 4 3 3 2 1 1 1 2 3 4 5 6 7 7 8 9 10 11 10 10 10 9 9 9 9 9 8 6 6 6 5 6 6 7 8 8 8 8 8 7 6 6 6 6 6 6 8 9
5 5 6 6 6 6 6 6 6 5 5 6 7 7 8 8 8 7 6 5 4 4 3 3 3 2 2 2 3 4 5 6 7 8 8 9 10 10 10 10 9 9 9 8 8 9 8 7 6 5 5 5 5 6 7 7 8 8 8 7 7 6 6 6 5 6 6 7 8
4 4 5 6 6 6 7 7 7 7 7 7 8 8 7 7 6 5 4 4 4 4 4 3 3 2 2 2 4 5 6 7 8 9 9 9 9 9 9 8 8 8 7 7 6 7 7 5 5 5 5 5 5 6 7 7 7 7 7 6 5 6 6 6 6 6 6 7 8
4 4 5 5 6 6 6 6 6 6 6 7 7 6 6 5 5 4 4 4 5 4 4 3 2 0 2 4 5 6 7 7 8 8 8 8 8 8 7 7 7 7 7 7 6 5 5 5 6 6 7 6 6 7 7 7 8 8 8 6 6 7 7 7 7 7 6 7 8
4 5 5 5 6 6 6 6 5 5 5 6 6 5 5 4 4 4 4 5 5 4 3 2 2 3 4 5 6 7 7 7 8 8 7 7 7 7 7 7 7 7 7 8 6 5 5 6 7 8 8 8 7 7 7 8 9 9 9 8 8 8 8 9 9 8 7 7 8
4 5 5 6 6 6 6 5 4 4 5 6 6 5 5 5 4 4 4 5 4 3 2 2 3 4 5 5 6 6 6 7 7 7 7 7 7 7 7 7 7 8 8 8 6 6 6 7 8 8 9 9 8 8 8 8 9 9 9 9 9 9 9 10 9 8 8 7 8
5 5 6 6 7 6 5 5 4 5 6 6 6 6 5 5 5 4 4 4 2 1 1 1 3 3 4 5 6 6 7 7 7 7 7 7 6 7 7 7 8 8 8 7 6 6 7 7 8 8 9 10 9 9 9 8 8 9 9 9 9 10 10 9 9 8 8 8 9
6 6 6 6 6 6 5 5 5 5 6 6 6 5 5 5 4 4 3 3 2 1 1 2 3 4 5 6 7 7 7 7 7 6 6 6 7 7 7 8 8 8 8 8 7 7 7 8 8 9 9 10 10 10 9 9 9 9 9 9 9 9 9 9 9 8 8 8 8
6 6 6 5 5 5 5 5 4 5 5 5 5 5 5 4 4 4 4 4 3 3 3 4 5 5 6 6 7 7 6 6 6 6 6 7 7 8 8 8 8 8 8 8 8 8 7 8 8 8 9 9 10 10 10 9 9 9 9 9 9 9 10 10 9 9 9 9 8
5 5 5 5 6 6 6 5 4 4 5 5 5 5 5 4 4 4 4 4 3 4 4 6 6 6 6 6 6 5 5 5 5 6 6 7 8 8 8 8 8 8 8 8 8 9 9 8 8 8 9 9 9 10 10 10 10 10 10 10 10 10 10 10 10 10 10 10 10
4 5 5 5 6 6 6 5 5 4 5 5 5 5 4 4 3 3 3 3 4 5 6 7 7 7 7 6 5 4 4 5 6 6 7 8 8 8 8 8 8 8 8 8 8 9 9 10 10 9 9 9 10 10 10 10 10 11 11 11 11 11 11 11 10 10 10 11 11
4 4 4 5 5 5 5 5 5 5 5 5 5 4 3 2 2 3 4 5 6 7 8 8 8 7 6 6 5 4 4 5 6 7 7 8 7 7 7 7 7 7 8 8 9 9 10 10 10 10 10 10 10 10 11 11 11 11 11 11 11 11 11 11 11 11 11 11 11
4 4 4 4 4 5 5 6 5 5 5 4 3 2 0 2 3 5 6 7 8 8 8 8 7 6 6 6 6 5 5 5 6 7 7 7 7 7 7 7 8 8 8 9 9 10 10 11 11 11 11 11 11 11 11 11 11 11 11 10 10 11 11 11 11 11 11 11 10
3 3 4 4 4 5 5 5 5 5 4 3 2 2 3 4 6 7 8 8 8 8 8 7 6 6 6 6 6 6 6 5 6 6 6 6 6 7 7 7 8 8 9 9 10 10 11 11 11 11 11 11 11 11 11 11 11 11 11 10 10 10 11 11 11 11 10 10 9
4 4 4 5 5 5 5 5 4 4 3 2 2 4 5 6 7 7 8 7 7 6 6 6 6 6 6 6 6 6 6 5 5 6 6 6 7 7 7 8 8 9 10 10 10 11 11 11 11 11 10 10 11 11 11 11 10 11 11 10 11 11 11 10 10 10 10 9 8
5 6 6 5 6 5 5 5 4 3 1 2 4 5 6 6 7 7 7 6 5 5 5 4 5 5 5 5 5 5 5 5 6 6 6 7 7 8 8 8 9 9 10 10 10 10 10 10 10 10 10 10 10 10 11 10 10 10 10 10 10 10 10 9 9 9 9 9 8
6 6 5 5 5 5 5 5 4 2 3 5 6 6 6 7 7 7 6 5 4 3 3 3 3 4 4 5 5 5 6 6 7 7 7 8 8 8 9 8 9 9 9 9 9 9 9 8 8 9 9 9 9 9 9 9 9 8 8 9 9 9 9 9 9 9 9 9 9
5 4 4 3 4 4 3 2 1 4 6 7 8 8 8 8 6 5 3 2 2 3 3 3 3 4 4 4 5 5 6 6 7 8 8 8 8 8 8 8 8 8 8 8 10 12 12 10 9 8 8 7 7 7 7 7 7 6 7 7 8 8 8 9 9 9 9 9 10
3 3 3 3 3 3 3 4 6 7 8 9 9 9 8 6 4 3 2 1 2 3 3 3 4 4 4 4 5 6 6 6 7 7 8 8 9 8 8 8 7 7 7 8 10 12 13 13 12 10 7 6 6 5 5 5 5 6 6 7 7 8 9 9 9 10 10 10 11
3 3 4 4 5 5 6 8 8 9 10 10 9 8 6 4 2 1 1 2 3 3 3 3 3 3 3 4 5 5 6 6 6 7 8 8 8 9 8 8 7 6 7 9 11 12 12 13 12 11 8 5 4 3 4 4 5 6 6 7 7 8 9 10 11 11 11 11 12
3 4 4 5 6 7 8 9 9 10 10 9 7 5 3 1 0 1 2 3 3 3 3 3 3 3 3 3 4 6 6 7 7 7 7 8 8 8 8 7 6 6 8 10 11 12 12 12 12 11 9 6 4 3 3 4 5 6 6 7 8 9 10 10 10 10 11 12 13
4 5 5 5 7 8 8 9 9 9 7 5 4 2 1 1 2 2 3 4 4 4 3 3 3 3 3 4 5 6 7 7 7 7 7 8 8 8 7 7 7 7 9 11 12 12 12 12 12 11 10 9 6 4 4 4 5 6 7 7 8 9 10 10 10 10 11 12 12
5 5 6 7 8 8 8 8 7 5 4 3 1 1 1 2 2 3 4 4 4 4 4 3 3 4 5 6 6 6 6 7 7 7 7 7 7 7 7 7 7 8 9 11 12 12 12 12 12 11 11 11 8 6 5 5 5 6 7 8 9 10 11 11 11 12 12 12 12
5 6 6 7 7 7 6 5 4 3 2 1 1 1 2 2 3 3 4 4 4 4 4 4 4 5 6 6 6 6 6 7 6 6 6 7 8 8 8 8 8 8 9 11 12 12 12 12 12 13 13 13 10 8 7 7 7 7 8 9 10 10 11 11 12 12 13 13 13
6 6 6 6 6 5 4 3 2 2 2 2 2 2 2 3 4 4 4 4 4 4 4 4 5 6 6 6 6 6 6 6 7 7 7 7 7 7 7 8 8 8 9 11 11 12 12 13 13 14 15 15 12 9 8 8 8 9 9 10 11 12 12 11 11 13 14 14 14
7 6 6 5 4 3 2 2 2 2 2 2 1 2 3 4 5 5 5 4 4 4 4 4 5 5 6 6 5 6 6 6 7 7 8 7 7 7 7 8 7 8 9 11 11 12 13 14 15 15 16 17 13 10 9 9 9 9 9 10 11 12 13 13 13 14 14 15 14
8 7 6 4 3 2 2 2 2 2 2 2 2 3 4 5 6 5 5 4 3 3 4 4 4 4 5 4 5 6 6 7 7 7 7 7 7 7 7 7 6 7 9 11 12 13 14 15 16 17 18 17 13 10 9 10 10 10 10 11 12 13 13 14 15 15 16 16 15
9 7 5 2 2 3 3 3 2 2 1 2 3 4 5 5 5 5 5 4 3 3 3 3 4 4 4 5 5 5 6 7 7 8 8 7 7 7 7 7 6 7 10 11 12 14 15 16 17 19 18 16 11 9 10 11 11 11 12 13 14 14 15 16 15 16 16 16 16
6 4 3 3 3 3 3 2 1 1 2 3 5 5 6 5 5 4 3 3 3 3 3 4 4 4 4 5 5 5 6 6 7 8 8 7 7 7 7 7 6 7 10 11 13 15 17 18 19 20 19 14 10 9 9 10 10 11 12 13 14 15 16 16 16 16 15 15 16
4 5 5 4 3 2 2 1 1 2 4 5 5 5 5 5 4 3 3 2 2 3 3 4 4 5 5 5 5 6 6 6 7 7 8 8 7 7 7 7 6 7 9 12 14 16 18 19 20 20 18 13 10 9 9 9 9 10 12 13 14 15 16 15 14 14 14 14 15
6 6 5 4 3 2 1 2 3 4 5 6 6 5 4 3 3 2 2 2 2 3 4 4 5 5 5 6 6 7 7 7 7 7 7 7 6 6 5 6 6 7 9 12 15 18 19 21 21 21 18 13 11 10 9 9 9 10 11 12 13 14 13 11 10 10 10 11 12
6 5 4 3 2 2 3 4 5 6 6 6 5 4 3 2 2 2 2 2 2 3 4 4 5 6 6 6 6 7 7 8 7 6 6 6 5 5 5 6 7 8 10 13 16 19 20 21 22 22 19 14 11 10 9 9 10 11 11 11 11 10 10 8 7 6 7 8 11
5 5 4 4 4 4 5 6 7 6 6 5 4 4 3 2 2 2 2 2 2 3 3 4 5 6 7 7 7 7 7 8 7 6 5 4 5 6 6 6 7 9 11 14 17 19 20 21 22 22 20 14 11 9 8 9 9 9 9 8 7 6 6 5 5 5 6 7 9
5 5 6 6 6 6 7 7 7 6 5 4 3 3 2 2 2 2 3 3 3 3 4 4 6 7 7 7 7 7 7 7 7 5 4 3 4 6 7 7 8 9 11 13 16 18 20 21 22 22 20 14 11 9 8 7 8 8 7 7 6 6 6 6 6 6 7 8 8
Wind_Direction
282 244 203 182 170 162 151 132 124 125 129 130 127 122 117 111 108 104 99 93 92 89 85 80 74 65 57 52 48 40 28 14 3 355 347 337 326 316 309 302 297 295 293 292 291 289 285 280 278 279 281 282 283 283 283 281 281 280 280 279 278 277 276 275 274 272 270 269 268
21 62 100 120 127 122 111 96 92 95 100 102 99 100 101 100 97 91 82 76 80 78 73 67 61 58 56 52 46 36 19 359 346 336 326 316 306 298 292 288 286 285 285 283 280 277 273 271 272 276 281 283 283 282 280 277 276 277 278 278 277 278 277 276 273 271 270 269 269
30 40 56 76 88 94 96 95 91 88 88 90 88 88 90 93 91 87 82 76 74 71 68 66 63 61 58 52 43 30 13 353 336 320 308 299 292 288 285 283 283 281 279 275 270 267 267 268 272 276 279 281 279 278 278 277 274 274 275 274 275 276 276 275 273 272 272 271 270
31 34 40 51 66 75 82 88 90 89 88 88 91 90 88 90 89 88 85 79 71 68 67 67 66 61 54 45 29 13 358 345 331 317 305 296 290 286 283 282 280 277 273 269 266 266 268 271 274 276 277 275 275 274 274 274 273 272 271 270 271 272 271 272 271 271 271 271 269
39 38 39 45 56 65 72 75 80 85 87 88 93 94 93 91 90 85 79 71 66 64 61 58 54 45 36 27 10 354 339 327 318 309 300 293 288 284 281 278 275 272 269 267 267 269 271 273 276 277 275 274 272 271 270 269 270 269 269 269 268 268 269 269 269 269 268 269 268
50 48 48 51 54 61 68 73 77 83 88 92 98 101 101 92 86 77 70 66 64 61 57 52 44 33 18 4 345 328 317 308 301 294 288 284 281 278 276 273 270 268 266 266 267 270 272 274 276 275 273 271 270 268 267 265 266 267 267 267 265 265 266 265 266 267 266 266 266
65 64 62 62 63 66 69 73 78 84 90 93 93 96 96 90 83 78 75 73 70 67 63 60 52 36 6 338 319 309 303 298 291 285 280 277 274 271 270 268 266 264 264 265 268 270 271 271 272 272 271 269 269 267 265 263 262 263 264 264 264 263 263 262 263 264 264 263 263
78 79 79 78 76 74 72 67 66 68 73 75 75 79 82 85 82 82 83 85 88 90 93 94 93 79 27 344 320 307 297 289 283 277 272 268 266 265 264 263 262 262 263 265 267 268 269 269 268 269 269 269 269 268 266 262 261 261 262 263 264 264 263 263 264 263 263 263 263
89 90 89 88 83 79 73 68 65 66 68 70 70 72 74 80 82 84 88 93 97 98 95 94 84 62 26 344 311 293 282 275 270 265 262 260 260 260 261 261 261 262 264 265 266 266 266 268 268 268 268 268 269 269 267 264 263 262 262 264 265 265 265 264 263 264 264 265 266
102 99 96 92 88 84 79 75 72 72 74 75 75 75 78 82 88 93 98 104 101 96 91 85 70 49 360 303 282 272 265 262 260 259 258 258 259 259 260 261 262 264 266 267 266 265 266 267 269 270 270 269 270 271 271 269 267 265 264 266 267 267 267 266 265 265 266 267 267
107 103 101 98 92 87 83 80 77 77 78 80 82 84 87 92 99 106 110 108 101 98 95 92 88 116 258 258 255 253 253 253 254 257 259 262 262 262 262 264 266 269 272 275 276 276 277 279 280 280 279 279 278 278 278 277 275 273 272 272 272 273 273 272 271 270 270 270 270
105 103 99 96 91 87 84 83 83 82 82 83 82 83 85 90 95 99 99 96 99 103 112 128 177 216 232 240 242 245 247 251 255 260 264 266 267 268 269 272 276 280 283 286 287 289 290 290 289 289 288 287 286 286 285 284 283 282 281 281 281 280 279 278 277 276 274 274 274
100 99 93 88 85 83 81 80 79 78 77 76 74 74 74 74 78 80 82 83 93 107 137 178 210 225 234 241 244 248 252 257 260 264 267 269 271 274 278 282 285 287 289 290 290 291 291 290 289 289 290 290 289 288 286 286 286 285 284 284 284 283 281 281 280 279 279 278 277
87 87 85 82 79 78 77 75 73 73 73 72 71 71 69 66 66 68 71 74 81 96 178 238 242 245 248 252 255 257 260 262 264 266 268 271 274 278 282 285 286 287 288 288 288 288 288 288 288 288 289 289 289 288 287 286 285 285 284 284 283 283 282 281 281 281 281 281 280
82 82 82 80 78 78 79 78 77 76 75 73 71 69 66 61 59 59 57 51 38 9 323 295 277 268 263 261 261 262 262 263 265 267 271 275 278 281 283 284 285 285 286 286 287 287 287 287 287 288 288 289 289 289 289 288 287 285 285 284 284 283 284 284 284 284 283 282 282
90 90 90 90 91 90 90 89 88 85 81 77 71 65 60 54 49 43 35 21 4 341 318 298 285 277 270 266 263 262 262 263 266 270 274 277 279 281 281 282 282 283 284 286 287 288 287 287 287 287 288 288 289 289 290 289 288 287 285 284 284 284 284 284 285 285 284 282 282
103 105 107 110 111 111 108 105 101 94 86 78 67 58 50 40 31 22 11 354 332 310 293 282 276 272 269 266 262 260 261 264 268 272 275 277 278 278 279 279 280 281 283 286 288 289 289 289 288 288 288 288 289 289 289 288 287 286 285 284 283 283 283 283 283 283 283 282 280
120 123 124 124 124 121 116 109 101 90 80 71 61 51 40 28 12 353 332 310 291 277 270 266 264 263 261 259 257 257 261 266 270 272 273 274 275 276 277 278 280 282 285 287 288 289 289 290 290 289 289 288 287 287 286 285 284 283 282 282 281 281 281 280 280 280 279 279 278
135 134 130 126 123 117 109 98 87 79 73 68 61 52 36 2 321 295 280 272 263 258 256 257 257 257 255 254 256 260 264 267 270 271 272 272 274 276 278 280 283 285 287 288 289 288 288 288 288 287 286 285 284 283 282 282 281 280 279 279 278 278 277 277 276 275 274 274 274
133 126 120 116 110 103 97 91 87 83 80 78 77 75 265 258 256 255 255 255 253 252 252 254 255 255 256 258 263 267 269 270 271 271 272 273 275 277 280 282 285 287 288 288 287 286 286 285 284 283 282 281 280 280 279 278 277 277 276 275 274 274 273 273 272 271 271 271 272
103 100 99 97 94 94 95 97 99 99 100 102 130 195 226 237 241 244 246 249 250 252 254 254 254 257 261 266 270 272 273 272 272 272 273 276 278 279 281 284 285 287 286 286 284 283 282 280 279 279 278 277 276 275 275 275 274 273 272 272 271 271 270 271 271 272 273 274 275
69 68 68 70 75 80 85 89 94 99 110 141 196 218 228 234 239 244 247 250 253 254 255 254 257 260 264 268 270 272 274 276 276 276 277 279 281 281 282 284 284 284 283 282 280 279 278 277 276 274 274 273 272 271 271 270 271 271 271 271 271 271 272 273 275 278 279 280 279
54 53 53 53 55 56 56 54 51 46 25 258 243 240 241 243 248 251 253 255 255 255 255 258 262 265 267 268 270 273 278 282 283 283 283 282 283 283 282 282 281 280 278 277 277 276 275 275 274 272 271 270 270 269 269 269 270 271 272 274 275 276 277 278 279 281 282 281 279
56 55 53 52 51 51 49 43 27 350 293 267 259 255 254 253 254 254 254 253 253 257 261 268 271 271 272 274 276 279 283 286 287 287 286 284 282 281 280 279 278 276 274 273 272 271 270 271 272 272 271 270 271 271 272 273 275 276 278 281 283 284 284 284 283 283 282 282 281
75 76 76 77 74 74 76 82 222 243 246 248 251 252 252 251 248 244 242 246 260 269 274 277 279 280 282 286 287 287 287 286 285 285 284 284 281 279 278 278 276 275 273 272 272 271 270 270 273 275 277 278 280 282 284 286 289 291 292 292 293 293 292 290 287 286 284 283 282
109 113 118 123 127 139 163 194 216 227 234 240 243 245 246 243 234 225 229 269 284 285 284 284 286 289 292 294 295 293 290 286 282 280 280 280 280 279 278 277 276 276 275 275 275 276 276 277 279 281 283 287 291 295 299 300 300 299 299 298 296 294 292 290 289 287 285 283 281
149 159 167 172 175 185 196 208 217 225 231 236 239 239 238 229 223 239 304 306 295 291 291 291 292 292 293 296 294 291 287 284 280 278 276 276 277 278 278 278 278 278 278 279 280 282 284 286 288 290 293 297 299 300 299 298 297 297 296 294 291 289 288 287 286 286 284 282 281
192 197 198 197 200 204 208 213 219 225 230 233 231 227 221 216 315 336 322 306 298 296 296 295 290 291 293 295 289 284 282 280 279 279 277 276 277 277 278 280 280 280 281 283 285 287 290 293 296 301 306 310 306 299 294 293 294 294 292 289 287 286 285 284 284 284 283 282 280
210 212 212 213 215 216 218 219 222 224 225 220 213 205 195 18 351 329 313 301 297 294 292 290 290 294 295 290 285 282 281 280 279 279 279 280 280 280 281 281 282 283 285 288 291 293 296 299 303 308 313 317 312 305 298 294 293 292 291 288 287 286 285 284 283 282 280 279 278
215 217 219 221 224 225 224 223 219 215 207 194 173 92 24 0 334 315 301 292 288 283 281 284 291 292 289 284 283 283 282 280 280 280 281 284 285 285 285 285 286 288 291 293 295 297 300 305 310 313 317 319 315 310 303 297 295 292 290 288 286 284 282 280 278 276 274 272 271
223 222 222 224 226 226 223 216 202 186 161 115 69 34 4 337 313 299 289 283 280 280 282 290 291 288 284 282 282 281 281 281 283 284 286 287 287 288 289 290 291 292 294 297 298 302 306 311 315 317 318 319 316 311 304 299 295 291 288 285 282 279 276 274 271 269 267 266 265
232 230 226 223 220 215 207 187 159 127 96 70 45 11 335 312 296 287 281 277 280 286 290 293 290 287 285 284 284 283 284 285 287 288 288 289 289 291 292 294 294 294 296 300 303 307 312 316 318 318 317 317 313 307 302 296 292 288 284 280 277 273 270 268 267 266 265 264 263
236 236 232 219 206 193 172 137 110 89 72 53 18 333 310 298 290 286 282 280 282 285 286 286 284 284 284 285 286 287 288 289 290 290 290 290 292 293 295 296 296 297 300 304 309 313 317 318 318 317 315 314 310 304 298 292 287 284 280 277 273 270 268 266 266 265 265 264 263
234 235 231 214 183 149 116 94 83 72 57 23 330 307 298 293 289 286 283 279 278 278 278 277 277 277 278 280 285 288 290 291 292 293 293 293 295 296 297 297 297 302 306 310 314 317 318 318 317 315 313 311 306 300 293 288 284 281 278 275 273 271 269 267 266 265 264 263 263
228 226 221 193 127 97 83 75 69 56 20 329 307 300 295 289 282 278 274 271 275 278 280 279 278 279 282 285 287 290 292 293 295 295 295 296 298 298 298 298 298 305 312 316 318 318 318 317 315 313 311 308 303 296 290 286 283 280 277 275 273 272 270 268 267 265 264 263 262
211 195 162 109 89 82 76 69 49 6 330 313 305 298 291 281 274 268 265 267 279 286 288 287 289 291 293 293 293 292 292 292 295 296 297 298 299 300 300 300 302 310 316 319 319 319 318 316 314 312 309 305 300 293 289 286 283 280 277 275 274 272 270 268 266 265 263 262 261
131 118 105 92 86 81 72 52 4 333 319 311 304 293 281 270 266 263 265 275 293 295 292 291 293 293 291 291 291 291 290 291 295 297 299 299 300 301 302 305 308 314 318 320 320 319 317 316 313 310 308 303 299 294 290 286 283 280 278 277 275 273 271 269 267 265 264 264 264
96 96 94 91 84 70 37 3 341 328 319 310 297 282 267 257 260 266 274 286 295 294 292 292 292 290 288 288 290 291 292 294 295 297 298 299 300 303 308 312 315 317 319 321 320 319 317 315 311 309 307 302 299 295 292 289 285 282 280 279 277 275 274 272 271 270 268 268 269
82 83 83 78 60 29 3 348 337 327 315 300 283 269 260 258 268 277 281 285 285 285 287 289 289 289 289 292 296 298 298 298 297 297 297 299 301 309 318 321 320 319 320 321 320 318 315 313 310 308 307 302 300 297 294 291 287 284 282 281 281 281 281 282 282 281 280 277 278
68 64 57 43 24 6 352 341 328 315 298 279 267 262 262 270 278 285 289 289 287 285 286 288 290 291 294 298 300 301 301 301 301 301 299 298 308 321 328 327 323 320 319 320 318 315 313 311 309 309 309 304 303 300 296 293 289 287 287 289 293 298 302 304 302 298 294 289 286
50 41 31 19 5 352 338 324 308 293 276 259 256 259 268 281 288 294 297 297 294 292 292 294 295 297 298 301 303 303 303 303 304 304 304 307 320 329 332 328 324 321 319 317 315 313 311 310 310 311 311 308 306 303 299 296 294 296 301 310 316 318 317 314 308 302 297 294 292